Location: Virginia Beach
(36.8530°N, 75.9780°W)
Time: 21:06:22
(UTC-05:00)

ISS - Visible Passes

Search period start: 16 November 2018 00:00
Search period end: 26 November 2018 00:00
Orbit: 402 x 408 km, 51.6° (Epoch: 17 November)

Date Brightness Start Highest point End Pass type
(mag) Time Alt. Az. Time Alt. Az. Time Alt. Az.
16 Nov -0.7 04:16:49 15° ESE 04:16:49 15° ESE 04:17:28 10° ESE visible
16 Nov -1.7 05:49:31 13° WSW 05:50:27 14° SW 05:52:14 10° SSW visible
17 Nov -1.7 05:00:09 19° S 05:00:09 19° S 05:01:25 10° SSE visible
20 Nov -0.8 18:57:44 10° SSW 18:57:53 11° SSW 18:57:53 11° SSW visible
21 Nov -1.9 18:06:38 10° S 18:08:25 16° SE 18:08:25 16° SE visible
22 Nov -2.3 18:49:35 10° SW 18:51:33 34° SW 18:51:33 34° SW visible
23 Nov -3.4 17:57:39 10° SSW 18:00:46 44° SE 18:01:54 30° E visible
24 Nov -2.3 18:42:05 10° W 18:44:49 32° NW 18:44:49 32° NW visible
25 Nov -3.6 17:49:37 10° WSW 17:52:51 64° NW 17:54:58 20° NE visible
